Location: Unspecified
(50.7693°N, 0.0000°E)
Time: 20:21:27
(UTC+00:00)

Transit 2A - Pass Details

Date: 25 June 2019
Orbit: 594 x 965 km, 66.7° (Epoch: 17 July)

Event Time Altitude Azimuth Distance (km) Brightness Sun altitude
Rises 07:25:04 0° 322° (NW) 3,508 9.1 30.8°
Reaches altitude 10° 07:27:43 10° 326° (NW) 2,514 8.5 31.2°
Maximum altitude 07:33:28 64° 48° (NE) 886 7.3 32.1°
Drops below altitude 10° 07:38:37 10° 130° (SE) 2,249 9.3 32.9°
Sets 07:40:52 0° 133° (SE) 3,111 9.8 33.3°
